"Pseudo-MPEC" for 7MDT001

Created 2023 Feb 4 0:22:02 UT using Find_Orb

Click here for an explanation of pseudo-MPECs

 
 Astrometry: 
     7MDT001*KC2023 01 11r-M:.7Dw:!ss.s@V3bINI'55AstrometryOoredacted;upmIB!PK19
     7MDT001 KC2023 01 11\cg[?euA^H)WB_D*.M-jbv?1qjYA2Zqow_P$%]MANorSiE:Yb6RMK19
     7MDT001 KC2023 01 11.B,)U@T$=m.4q3Kh`l/s4b4uPl'#TJ0]clickYPl]H_k\1$-y;MMK19
     7MDT001 6C2023 01 13)5iqkG]EK8I[O(eAe3here'0o8hWk,1`Y^CH';mEb+DgCnLPhnpUZ84
     7MDT001 6C2023 01 13O%Ao\f!GL5+o72d+1'6/n3#q_.9-$n6*M1Scw/0ID;s[']@ld0YCZ84
     7MDT001 6C2023 01 13Y*]forgwDEE[*sexplanationl]\jlGm6bfLDJFjhWF!T+7G\\G(Z84

Station data:
(K19) PASTIS Observatory, Banon  (N43.999459 E5.647310)  France.  Observer C.
   Demeautis. 0.16-m f/3.3 reflector + CCD.
(Z84) Calar Alto-Schmidt  (N37.224046 W2.548210)  Spain.  Observer E. Schwab.
   Measurers E. Schwab, D. Koschny, M. Micheli. 0.8-m f/3 Schmidt + CCD.

Orbital elements:  7MDT001
   Perihelion 2023 Feb 7.25274 +/- 60.9 TT =  6:03:56 (JD 2459982.75274)
Epoch 2023 Jan 13.0 TT = JDT 2459957.5   Earth MOID: 0.0002   Ma: 0.0131
M 344.20079800 +/- 80               (J2000 ecliptic)             AutoNEOCP
n   0.62564318 +/- 1.85             Peri.  191.90949 +/- 31
a   1.35389474 +/- 2.66             Node   306.66638 +/- 70
e   0.2754726 +/- 1.46              Incl.    0.67023 +/- 2.3
P   1.58/575.40d           H 24.75  G  0.15   U 13.2
q 0.98093372 +/- 0.0497    Q 1.72685577 +/- 5.37
4 of 6 observations 2023 Jan. 11-13 (46.2 hr); mean residual 0".23
Residuals in arcseconds: 
230111 K19  .26+  .08+    230111 K19  .26+  .07+    230113 Z84  .00   .00     
230111 K19  .51-  .15-    230113 Z84( 2.5-  .54-)   230113 Z84( 2.4+  .23+)   

Ephemerides (geocentric):
Date (UTC) HH   RA             Dec           delta  r     elong  mag " sig PA
---- --------  ------------   ------------  ------ ------ -----  --- --------
2023 02 04 00  17 05 44.010   -34 57 34.75  .00687 .98191  56.8 19?? 155d 113
2023 02 04 01  17 04 05.657   -34 49 56.92  .00695 .98191  57.1 19?? 156d 113
2023 02 04 02  17 02 29.981   -34 42 25.36  .00704 .98191  57.5 19?? 156d 113
2023 02 04 03  17 00 56.885   -34 35 00.06  .00712 .98191  57.9 19?? 156d 113
2023 02 04 04  16 59 26.272   -34 27 41.03  .00721 .98191  58.2 19?? 157d 114
2023 02 04 05  16 57 58.052   -34 20 28.25  .00729 .98191  58.5 19?? 157d 114
2023 02 04 06  16 56 32.140   -34 13 21.71  .00738 .98190  58.9 19?? 157d 114
2023 02 04 07  16 55 08.451   -34 06 21.36  .00746 .98190  59.2 19?? 158d 114
2023 02 04 08  16 53 46.908   -33 59 27.17  .00755 .98190  59.5 19?? 158d 115
2023 02 04 09  16 52 27.434   -33 52 39.09  .00764 .98190  59.8 19.0 158d 115
2023 02 04 10  16 51 09.956   -33 45 57.05  .00772 .98190  60.2 19.0 159d 115
2023 02 04 11  16 49 54.406   -33 39 21.01  .00781 .98190  60.5 19.0 159d 115
2023 02 04 12  16 48 40.716   -33 32 50.90  .00790 .98190  60.8 19.0 159d 115
2023 02 04 13  16 47 28.824   -33 26 26.65  .00798 .98190  61.0 19.0 160d 116
2023 02 04 14  16 46 18.667   -33 20 08.18  .00807 .98190  61.3 19.0 160d 116
2023 02 04 15  16 45 10.189   -33 13 55.42  .00816 .98190  61.6 19.0 160d 116
2023 02 04 16  16 44 03.332   -33 07 48.30  .00824 .98190  61.9 19.0 160d 116
2023 02 04 17  16 42 58.044   -33 01 46.73  .00833 .98190  62.2 19.0 161d 116
2023 02 04 18  16 41 54.272   -32 55 50.64  .00842 .98190  62.4 19.0 161d 117
2023 02 04 19  16 40 51.968   -32 49 59.93  .00851 .98191  62.7 19.0 161d 117
2023 02 04 20  16 39 51.083   -32 44 14.54  .00860 .98191  63.0 19.0 161d 117
2023 02 04 21  16 38 51.573   -32 38 34.38  .00868 .98191  63.2 19.0 162d 117
2023 02 04 22  16 37 53.394   -32 32 59.35  .00877 .98191  63.5 19.0 162d 117
2023 02 04 23  16 36 56.505   -32 27 29.39  .00886 .98191  63.7 19.0 162d 117
2023 02 05 00  16 36 00.864   -32 22 04.39  .00895 .98191  63.9 19.0 162d 118
2023 02 05 01  16 35 06.433   -32 16 44.29  .00904 .98192  64.2 19.1 162d 118
2023 02 05 02  16 34 13.175   -32 11 29.00  .00912 .98192  64.4 19.1 163d 118
2023 02 05 03  16 33 21.054   -32 06 18.43  .00921 .98192  64.7 19.1 163d 118
2023 02 05 04  16 32 30.037   -32 01 12.50  .00930 .98192  64.9 19.1 163d 118
2023 02 05 05  16 31 40.090   -31 56 11.13  .00939 .98193  65.1 19.1 163d 118
2023 02 05 06  16 30 51.180   -31 51 14.25  .00948 .98193  65.3 19.1 163d 119
2023 02 05 07  16 30 03.279   -31 46 21.76  .00957 .98193  65.5 19.1 164d 119
2023 02 05 08  16 29 16.355   -31 41 33.59  .00966 .98193  65.8 19.1 164d 119
2023 02 05 09  16 28 30.382   -31 36 49.67  .00975 .98194  66.0 19.1 164d 119
2023 02 05 10  16 27 45.331   -31 32 09.91  .00984 .98194  66.2 19.1 164d 119
2023 02 05 11  16 27 01.177   -31 27 34.25  .00993 .98195  66.4 19.1 164d 119
2023 02 05 12  16 26 17.893   -31 23 02.60  .01001 .98195  66.6 19.1 165d 119
2023 02 05 13  16 25 35.456   -31 18 34.89  .01010 .98195  66.8 19.1 165d 119
2023 02 05 14  16 24 53.842   -31 14 11.05  .01019 .98196  67.0 19.1 165d 120
2023 02 05 15  16 24 13.028   -31 09 51.02  .01028 .98196  67.2 19.1 165d 120
2023 02 05 16  16 23 32.993   -31 05 34.71  .01037 .98197  67.4 19.1 165d 120
2023 02 05 17  16 22 53.715   -31 01 22.06  .01046 .98197  67.5 19.1 165d 120
2023 02 05 18  16 22 15.174   -30 57 13.01  .01055 .98198  67.7 19.2 166d 120
2023 02 05 19  16 21 37.349   -30 53 07.48  .01064 .98198  67.9 19.2 166d 120
2023 02 05 20  16 21 00.223   -30 49 05.42  .01073 .98199  68.1 19.2 166d 120
2023 02 05 21  16 20 23.777   -30 45 06.75  .01082 .98199  68.3 19.2 166d 121
2023 02 05 22  16 19 47.993   -30 41 11.42  .01091 .98200  68.4 19.2 166d 121
2023 02 05 23  16 19 12.853   -30 37 19.37  .01100 .98200  68.6 19.2 166d 121